Regional Weather Roundup
Issued by NWS

Home | Current Version | Previous Version | Graphics & Text | Print | Product List | Glossary On
Versions: 1 2 3 4 5 6 7 8 9 10 11 12 13 14 15 16 17 18 19 20 21 22 23 24 25 26 27 28 29 30 31 32 33 34 35 36 37 38 39 40 41 42 43 44 45 46 47 48 49 50
000
ASUS43 KLMK 010602
RWRKY
KENTUCKY REGIONAL WEATHER ROUNDUP
NATIONAL WEATHER SERVICE LOUISVILLE KY
100 AM EST SUN MAR 01 2015

NOTE "FAIR" INDICATES FEW OR NO CLOUDS BELOW 12,000 FEET
WITH NO SIGNIFICANT WEATHER AND/OR OBSTRUCTIONS TO VISIBILITY.

KYZ001>023-026-027-061>063-070>075-010700-
WESTERN AND SOUTH CENTRAL KENTUCKY

CITY           SKY/WX    TMP DP  RH WIND       PRES   REMARKS
PADUCAH        CLOUDY    33  22  63 NE7       30.40F WCI  27
HENDERSON      CLOUDY    32  21  64 NE6       30.43F WCI  26
OWENSBORO      MOCLDY    33  20  59 NE8       30.43F WCI  26
HOPKINSVILLE   MOCLDY    34  27  75 NE6       30.38F WCI  29
BOWLING GREEN  CLOUDY    36  22  56 N3        30.41F
GLASGOW        NOT AVBL
$$

KYZ024-025-028>034-038-045-046-053-010700-
NORTH CENTRAL KENTUCKY

CITY           SKY/WX    TMP DP  RH WIND       PRES   REMARKS
LOUISVILLE/SDF CLOUDY    31  24  75 N12       30.45S WCI  22
LOUISVILLE/LOU CLOUDY    31  24  75 N8        30.46S WCI  23
FORT KNOX      CLOUDY    31  21  64 N6        30.41F WCI  26
$$

KYZ035>037-039>044-047>052-055>060-089>105-010700-
NORTHEAST KENTUCKY

CITY           SKY/WX    TMP DP  RH WIND       PRES   REMARKS
LEXINGTON      CLOUDY    31  21  66 NE6       30.44F WCI  25
COVINGTON      LGT SNOW  24  20  84 E6        30.46F FOG     WCI  17
FRANKFORT        N/A     31  18  58 NE5       30.43F WCI  26
$$

KYZ054-064>069-076>088-106>120-010700-
SOUTHEAST KENTUCKY

CITY           SKY/WX    TMP DP  RH WIND       PRES   REMARKS
JACKSON        CLOUDY    36  17  46 CALM      30.41F
LONDON         CLOUDY    34  23  64 CALM      30.41F
SOMERSET       NOT AVBL
MIDDLESBORO    CLOUDY    34  29  84 CALM      30.44F
MONTICELLO     MOCLDY    41  29  62 CALM      30.43F
$$




USA.gov is the U.S. government's official web portal to all federal, state and local government web resources and services.